Terminal Aerodrome Forecast
Issued by NWS Cleveland, OH

Home | Current Version | Previous Version | Text Only | Print | Product List | Glossary On
Versions: 1 2 3 4 5 6 7 8 9 10 11 12 13 14 15 16 17 18 19 20 21 22 23 24 25 26 27 28 29 30 31 32 33
000
FTUS41 KCLE 310200 AAA
TAFCLE
TAF AMD
KCLE 310245Z 3103/0106 20011KT P6SM VCSH SCT040 BKN080
     FM311000 22009KT 5SM -SHRA OVC025
     FM311400 23009KT 4SM BR VCSH OVC015
     FM311800 23009KT P6SM BKN025=

USA.gov is the U.S. government's official web portal to all federal, state and local government web resources and services.